Year,Month,Day,Hour,Minute,Value (Times are PST for temperature in C)
2017,11,19,16,11,-24.90
2017,11,19,16,12,-24.90
2017,11,19,16,13,-24.80
2017,11,19,16,14,-24.30
2017,11,19,16,15,-23.90
2017,11,19,16,16,-23.90
2017,11,19,16,17,-23.90
2017,11,19,16,18,-23.70
2017,11,19,16,19,-23.80
2017,11,19,16,20,-23.60
2017,11,19,16,21,-23.60
2017,11,19,16,22,-23.60
2017,11,19,16,23,-23.60
2017,11,19,16,24,-23.50
2017,11,19,16,25,-23.20
2017,11,19,16,26,-23.30
2017,11,19,16,27,-23.20
2017,11,19,16,28,-23.10
2017,11,19,16,29,-23.00
2017,11,19,16,30,-23.00
2017,11,19,16,31,-23.00
2017,11,19,16,32,-22.90
2017,11,19,16,33,-22.80
2017,11,19,16,34,-22.90
2017,11,19,16,35,-22.50
2017,11,19,16,36,-22.50
2017,11,19,16,37,-22.50
2017,11,19,16,38,-22.40
2017,11,19,16,39,-22.30
2017,11,19,16,40,-22.50
2017,11,19,16,41,-22.30
2017,11,19,16,42,-22.20
2017,11,19,16,43,-22.00
2017,11,19,16,44,-22.10
2017,11,19,16,45,-22.00
2017,11,19,16,46,-22.00
2017,11,19,16,47,-22.00
2017,11,19,16,48,-22.00
2017,11,19,16,49,-22.00
2017,11,19,16,50,-22.00
2017,11,19,16,51,-22.00
2017,11,19,16,52,-21.80
2017,11,19,16,53,-21.70
2017,11,19,16,54,-21.70
2017,11,19,16,55,-21.70
2017,11,19,16,56,-21.70
2017,11,19,16,57,-21.70
2017,11,19,16,58,-21.70
2017,11,19,16,59,-21.60
2017,11,19,17,00,-21.40
2017,11,19,17,01,-21.40
2017,11,19,17,02,-21.40
2017,11,19,17,03,-21.40
2017,11,19,17,04,-21.40
2017,11,19,17,05,-21.40
2017,11,19,17,06,-21.40
2017,11,19,17,07,-21.10
2017,11,19,17,08,-21.20
2017,11,19,17,09,-21.20
2017,11,19,17,10,-21.20
2017,11,19,17,11,-21.10
2017,11,19,17,12,-21.10
2017,11,19,17,13,-21.10
2017,11,19,17,14,-21.10
2017,11,19,17,15,-21.10
2017,11,19,17,16,-21.10
2017,11,19,17,17,-21.00
2017,11,19,17,18,-21.10
2017,11,19,17,19,-21.00
2017,11,19,17,20,-20.90
2017,11,19,17,21,-21.10
2017,11,19,17,22,-21.10
2017,11,19,17,23,-21.00
2017,11,19,17,24,-21.00
2017,11,19,17,25,-20.90
2017,11,19,17,26,-20.80
2017,11,19,17,27,-20.80
2017,11,19,17,28,-21.10
2017,11,19,17,29,-21.10
2017,11,19,17,30,-20.80
2017,11,19,17,31,-20.80
2017,11,19,17,32,-20.80
2017,11,19,17,33,-20.80
2017,11,19,17,34,-20.80
2017,11,19,17,35,-20.80
2017,11,19,17,36,-20.80
2017,11,19,17,37,-20.60
2017,11,19,17,38,-20.60
2017,11,19,17,39,-20.50
2017,11,19,17,40,-20.50
2017,11,19,17,41,-20.50
2017,11,19,17,42,-20.50
2017,11,19,17,43,-20.50
2017,11,19,17,44,-20.50
2017,11,19,17,45,-20.50
2017,11,19,17,46,-20.40
2017,11,19,17,47,-20.20
2017,11,19,17,48,-20.20
2017,11,19,17,49,-20.20
2017,11,19,17,50,-20.20
2017,11,19,17,51,-20.20
2017,11,19,17,52,-20.20
2017,11,19,17,53,-20.10
2017,11,19,17,54,-20.10
2017,11,19,17,55,-20.00
2017,11,19,17,56,-20.00
2017,11,19,17,57,-19.90
2017,11,19,17,58,-19.90
2017,11,19,17,59,-19.90
2017,11,19,18,00,-19.90
2017,11,19,18,01,-19.90
2017,11,19,18,02,-19.70
2017,11,19,18,03,-19.70
2017,11,19,18,04,-19.60
2017,11,19,18,05,-19.60
2017,11,19,18,06,-19.80
2017,11,19,18,07,-19.90
2017,11,19,18,08,-19.60
2017,11,19,18,09,-19.60
2017,11,19,18,10,-19.60
2017,11,19,18,11,-19.90
2017,11,19,18,12,-19.60
2017,11,19,18,13,-19.60
2017,11,19,18,14,-19.60
2017,11,19,18,15,-19.60
2017,11,19,18,16,-19.60
2017,11,19,18,17,-19.70
2017,11,19,18,18,-19.60
2017,11,19,18,19,-19.60
2017,11,19,18,20,-19.50
2017,11,19,18,21,-19.60
2017,11,19,18,22,-19.50
2017,11,19,18,23,-19.50
2017,11,19,18,24,-19.40
2017,11,19,18,25,-19.40
2017,11,19,18,26,-19.30
2017,11,19,18,27,-19.30
2017,11,19,18,28,-19.30
2017,11,19,18,29,-19.30
2017,11,19,18,30,-19.30
2017,11,19,18,31,-19.30
2017,11,19,18,32,-19.30
2017,11,19,18,33,-19.30
2017,11,19,18,34,-19.00
2017,11,19,18,35,-19.10
2017,11,19,18,36,-19.30
2017,11,19,18,37,-19.00
2017,11,19,18,38,-19.00
2017,11,19,18,39,-19.00
2017,11,19,18,40,-19.00
2017,11,19,18,41,-19.00
2017,11,19,18,42,-19.00
2017,11,19,18,43,-19.00
2017,11,19,18,44,-19.00
2017,11,19,18,45,-19.00
2017,11,19,18,46,-19.00
2017,11,19,18,47,-18.70
2017,11,19,18,48,-19.00
2017,11,19,18,49,-19.00
2017,11,19,18,50,-18.90
2017,11,19,18,51,-18.70
2017,11,19,18,52,-18.70
2017,11,19,18,53,-18.70
2017,11,19,18,54,-18.70
2017,11,19,18,55,-18.70
2017,11,19,18,56,-18.70
2017,11,19,18,57,-18.70
2017,11,19,18,58,-18.70
2017,11,19,18,59,-18.70
2017,11,19,19,00,-18.40
2017,11,19,19,01,-18.60
2017,11,19,19,02,-18.70
2017,11,19,19,03,-18.60
2017,11,19,19,04,-18.40
2017,11,19,19,05,-18.40
2017,11,19,19,06,-18.50
2017,11,19,19,07,-18.70
2017,11,19,19,08,-18.70
2017,11,19,19,09,-18.70
2017,11,19,19,10,-18.70
2017,11,19,19,11,-18.70
2017,11,19,19,12,-18.40
2017,11,19,19,13,-18.40
2017,11,19,19,14,-18.40
2017,11,19,19,15,-18.50
2017,11,19,19,16,-18.40
2017,11,19,19,17,-18.70
2017,11,19,19,18,-18.50
2017,11,19,19,19,-18.40
2017,11,19,19,20,-18.40
2017,11,19,19,21,-18.40
2017,11,19,19,22,-18.40
2017,11,19,19,23,-18.10
2017,11,19,19,24,-18.10
2017,11,19,19,25,-18.30
2017,11,19,19,26,-18.40
2017,11,19,19,27,-18.30
2017,11,19,19,28,-18.10
2017,11,19,19,29,-18.10
2017,11,19,19,30,-18.10
2017,11,19,19,31,-18.10
2017,11,19,19,32,-18.10
2017,11,19,19,33,-17.90
2017,11,19,19,34,-17.90
2017,11,19,19,35,-17.80
2017,11,19,19,36,-17.80
2017,11,19,19,37,-17.60
2017,11,19,19,38,-17.80
2017,11,19,19,39,-17.80
2017,11,19,19,40,-17.80
2017,11,19,19,41,-17.80
2017,11,19,19,42,-17.80
2017,11,19,19,43,-17.80
2017,11,19,19,44,-17.80
2017,11,19,19,45,-17.80
2017,11,19,19,46,-17.70
2017,11,19,19,47,-17.80
2017,11,19,19,48,-17.80
2017,11,19,19,49,-17.70
2017,11,19,19,50,-17.60
2017,11,19,19,51,-17.80
2017,11,19,19,52,-17.60
2017,11,19,19,53,-18.00
2017,11,19,19,54,-18.10
2017,11,19,19,55,-18.10
2017,11,19,19,56,-18.10
2017,11,19,19,57,-17.80
2017,11,19,19,58,-17.80
2017,11,19,19,59,-17.80
2017,11,19,20,00,-17.90
2017,11,19,20,01,-18.10
2017,11,19,20,02,-18.00
2017,11,19,20,03,-17.80
2017,11,19,20,04,-18.00
2017,11,19,20,05,-17.90
2017,11,19,20,06,-17.80
2017,11,19,20,07,-18.10
2017,11,19,20,08,-18.10
2017,11,19,20,09,-18.00
2017,11,19,20,10,-17.90
2017,11,19,20,11,-17.80
2017,11,19,20,12,-17.90
2017,11,19,20,13,-18.10
2017,11,19,20,14,-17.80
2017,11,19,20,15,-17.90
2017,11,19,20,16,-17.90
2017,11,19,20,17,-17.80
2017,11,19,20,18,-17.90
2017,11,19,20,19,-17.80
2017,11,19,20,20,-17.90
2017,11,19,20,21,-17.80
2017,11,19,20,22,-17.90
2017,11,19,20,23,-17.90
2017,11,19,20,24,-18.00
2017,11,19,20,25,-17.90
2017,11,19,20,26,-18.00
2017,11,19,20,27,-17.80
2017,11,19,20,28,-17.90
2017,11,19,20,29,-17.80
2017,11,19,20,30,-17.90
2017,11,19,20,31,-18.00
2017,11,19,20,32,-17.80
2017,11,19,20,33,-18.10
2017,11,19,20,34,-18.00
2017,11,19,20,35,-18.10
2017,11,19,20,36,-18.10
2017,11,19,20,37,-17.90
2017,11,19,20,38,-18.00
2017,11,19,20,39,-18.10
2017,11,19,20,40,-18.00
2017,11,19,20,41,-18.30
2017,11,19,20,42,-18.10
2017,11,19,20,43,-18.10
2017,11,19,20,44,-18.20
2017,11,19,20,45,-18.30
2017,11,19,20,46,-18.30
2017,11,19,20,47,-18.30
2017,11,19,20,48,-18.40
2017,11,19,20,49,-18.40
2017,11,19,20,50,-18.60
2017,11,19,20,51,-18.50
2017,11,19,20,52,-18.70
2017,11,19,20,53,-18.70
2017,11,19,20,54,-19.00
2017,11,19,20,55,-19.00
2017,11,19,20,56,-19.00
2017,11,19,20,57,-19.10
2017,11,19,20,58,-19.00
2017,11,19,20,59,-19.30
2017,11,19,21,00,-19.20
2017,11,19,21,01,-19.10
2017,11,19,21,02,-19.20
2017,11,19,21,03,-19.30
2017,11,19,21,04,-19.30
2017,11,19,21,05,-19.30
2017,11,19,21,06,-19.50
2017,11,19,21,07,-19.60
2017,11,19,21,08,-19.90
2017,11,19,21,09,-19.90
2017,11,19,21,10,-20.20
2017,11,19,21,11,-20.10
2017,11,19,21,12,-20.00
2017,11,19,21,13,-20.00
2017,11,19,21,14,-20.40
2017,11,19,21,15,-20.20
2017,11,19,21,16,-20.30
2017,11,19,21,17,-20.30
2017,11,19,21,18,-20.40
2017,11,19,21,19,-20.60
2017,11,19,21,20,-20.50
2017,11,19,21,21,-20.60
2017,11,19,21,22,-20.80
2017,11,19,21,23,-20.80
2017,11,19,21,24,-20.80
2017,11,19,21,25,-20.80
2017,11,19,21,26,-21.00
2017,11,19,21,27,-21.00
2017,11,19,21,28,-21.10
2017,11,19,21,29,-21.10
2017,11,19,21,30,-21.10
2017,11,19,21,31,-21.20
2017,11,19,21,32,-21.20
2017,11,19,21,33,-21.20
2017,11,19,21,34,-21.10
2017,11,19,21,35,-21.00
2017,11,19,21,36,-20.80
2017,11,19,21,37,-20.60
2017,11,19,21,38,-20.50
2017,11,19,21,39,-20.40
2017,11,19,21,40,-20.20
2017,11,19,21,41,-20.10
2017,11,19,21,42,-19.90
2017,11,19,21,43,-20.00
2017,11,19,21,44,-19.90
2017,11,19,21,45,-19.90
2017,11,19,21,46,-20.10
2017,11,19,21,47,-20.20
2017,11,19,21,48,-20.50
2017,11,19,21,49,-20.50
2017,11,19,21,50,-20.50
2017,11,19,21,51,-20.70
2017,11,19,21,52,-20.90
2017,11,19,21,53,-20.90
2017,11,19,21,54,-21.00
2017,11,19,21,55,-21.20
2017,11,19,21,56,-21.10
2017,11,19,21,57,-21.20
2017,11,19,21,58,-21.40
2017,11,19,21,59,-21.40
2017,11,19,22,00,-21.70
2017,11,19,22,01,-21.80
2017,11,19,22,02,-22.00
2017,11,19,22,03,-22.40
2017,11,19,22,04,-22.50
2017,11,19,22,05,-22.50
2017,11,19,22,06,-22.80
2017,11,19,22,07,-23.20
2017,11,19,22,08,-23.30
2017,11,19,22,09,-23.60
2017,11,19,22,10,-23.60
2017,11,19,22,11,-23.60
2017,11,19,22,12,-23.90
2017,11,19,22,13,-24.00
2017,11,19,22,14,-24.20
2017,11,19,22,15,-24.10
2017,11,19,22,16,-24.00
2017,11,19,22,17,-24.20
2017,11,19,22,18,-24.40
2017,11,19,22,19,-24.60
2017,11,19,22,20,-24.70
2017,11,19,22,21,-24.60
2017,11,19,22,22,-24.80
2017,11,19,22,23,-24.90
2017,11,19,22,24,-24.90
2017,11,19,22,25,-24.90
2017,11,19,22,26,-24.90
